Flag for U.S.A. Weather past 2 weeks in Rapid City, South Dakota, U.S.A.

Now
69 °F

Partly sunny.


Feels Like: 69 °F
Forecast: 58 / 79 °F
Wind: 10 mph from Southeast

Location: Ellsworth Air Force Base

Current Time: Aug 27, 2014 at 7:57:49 PM

Latest Report: Aug 27, 2014 at 6:58 PM


Visibility: 10 mi

Pressure: 30.03 "Hg

Humidity: 80%

Dew point: 62 °F

Location of Rapid CityLocation

Historic Weather in Rapid City — Graph

°F

Rapid City temperature yesterday

Maximum temperature yesterday: 75 °F (at 4:58 PM)
Minimum temperature yesterday: 54 °F (at 1:58 AM)
Average temperature yesterday: 64 °F

Past Weeks' High & Low Weather Summary

 TemperatureHumidityPressure
High92 °F (Aug 14, 1:58 PM)100% (Aug 22, 5:58 AM)30.18 "Hg (Aug 22, 5:58 AM)
Low49 °F (Aug 25, 4:58 AM)31% (Aug 16, 3:58 PM)29.62 "Hg (Aug 20, 2:58 AM)
Average70 °F66%29.91 "Hg
* Reported Aug 12 5:58 PM — Aug 27 5:58 PM, Rapid City, Weather by CustomWeather, © 2014

Note: Actual official high and low records may vary slightly from our data, if they occured in-between our weather recording intervals... More about our weather records

Advertising

Rapid City weather history for previous 24 hours

 ConditionsComfort  
Time TempWeatherWind HumidityBarometerVisibility
5:58 PM
Aug 27
71 °FBroken clouds.8 mph72%30.02 "Hg10 mi
4:58 PM72 °FScattered clouds.7 mph68%30.02 "Hg10 mi
3:58 PM73 °FPartly sunny.5 mph68%30.02 "Hg10 mi
3:03 PM73 °FPartly sunny.8 mph69%30.09 "Hg10 mi
2:03 PM73 °FScattered clouds.5 mph65%30.09 "Hg10 mi
1:58 PM73 °FPartly sunny.5 mph67%30.05 "Hg10 mi
12:58 PM71 °FPassing clouds.5 mph72%30.08 "Hg10 mi
10:58 AM68 °FScattered clouds.10 mph75%30.10 "Hg10 mi
9:58 AM66 °FSunny.9 mph73%30.10 "Hg10 mi
8:58 AM62 °FSunny.5 mph80%30.11 "Hg10 mi
7:58 AM58 °FSunny.5 mph89%30.13 "Hg10 mi
6:58 AM56 °FClear.2 mph91%30.11 "Hg10 mi
5:58 AM56 °FPassing clouds.1 mph89%30.10 "Hg10 mi
4:58 AM59 °FOvercast.3 mph85%30.07 "Hg10 mi
3:58 AM59 °FOvercast.2 mph85%30.09 "Hg10 mi
2:58 AM58 °FClear.5 mph86%30.11 "Hg10 mi
1:58 AM62 °FClear.3 mph76%30.11 "Hg10 mi
12:58 AM62 °FOvercast.No wind77%30.12 "Hg10 mi
11:58 PM
Aug 26
63 °FPartly cloudy.No wind74%30.12 "Hg10 mi
10:58 PM64 °FPassing clouds.No wind73%30.14 "Hg10 mi
9:58 PM65 °FOvercast.8 mph73%30.13 "Hg10 mi
8:58 PM65 °FClear.6 mph74%30.13 "Hg10 mi
7:58 PM71 °FSunny.6 mph63%30.09 "Hg10 mi
Weather by CustomWeather, © 2014

See weather overviewHow to use our weather pages